Location: Banska Bystrica
(48.7333°N, 19.1500°E)
Time: 10:17:19
(UTC+01:00)

ISS - Pass Details

Date: 24 January 2021
Orbit: 417 x 422 km, 51.6° (Epoch: 07 March)

Event Time Altitude Azimuth Distance (km) Brightness Sun altitude
Rises 17:08:09 0° 234° (SW) 2,362 1.9 -6.7°
Reaches altitude 10° 17:10:15 10° 229° (SW) 1,502 0.4 -7.0°
Maximum altitude 17:13:33 54° 152° (SSE) 519 -3.3 -7.6°
Enters shadow 17:16:45 11° 74° (ENE) 1,460 -1.7 -8.0°
